リニア彗星

230P/LINEAR (2003)

English version
Home page
Updated on January 1, 2010

---------------------------------------------------------------------

・ プロフィール

符号 230P/2002 Q15

・ 軌道要素

Epoch 2003 Mar. 22.0 TT = JDT 2452720.5
T 2003 Mar. 3.01903 TT                                  MPC
q   1.5656912            (2000.0)            P               Q
n   0.15221268     Peri.  304.38653     +0.47317537     -0.85513527
a   3.4740455      Node   116.00570     +0.86568652     +0.40675255
e   0.5493176      Incl.   13.62894     +0.16337660     +0.32139701
P   6.48

・ 光度変化

        m1 = 13.2 + 5 logΔ + 10.0 log r

---------------------------------------------------------------------

軌道要素はM.P.E.C. 2009-X47に掲載されたものです。
光度グラフはComet for Windowsで作成したものです。

---------------------------------------------------------------------

Copyright(C) Seiichi Yoshida (comet@aerith.net). All rights reserved.